Epoch 2023 May 16.0 TT = JDT 2460080.5
T 2023 May 14.01945 TT MPCW
q 0.8012869 (2000.0) P Q
n 0.20172094 Peri. 212.02030 -0.21358556 +0.96508599
a 2.8794004 Node 46.14797 -0.84610936 -0.10515907
e 0.7217174 Incl. 12.13761 -0.48834430 -0.23989705
P 4.89
From 681 observations 2013 Feb. 1-2018 Nov. 27, mean residual 0".6.
Finding Charts
Magnitudes Graph
H = 16.5 G = 0.15 [ ,-58] ( - 2023 Mar. 17)
m1 = 16.0 + 5 log d + 25.0 log r(t - 5) [-58, 74] (2023 Mar. 17 - 2023 July 27)
H = 16.5 G = 0.15 [ 74, ] (2023 July 27 - )